Time,TemperatureF,DewpointF,PressureIn,WindDirection,WindDirectionDegrees,WindSpeedMPH,WindSpeedGustMPH,Humidity,HourlyPrecipIn,Conditions,Clouds,dailyrainin,SolarRadiationWatts/m^2,SoftwareType,DateUTC
2013-11-16 00:02:00,39.0,34.0,-100.00,South,170,2.0,10.0,83,0.00,,,0.00,0.000000,,2013-11-16 06:02:00,
2013-11-16 00:13:00,39.0,34.0,-100.00,South,170,2.0,10.0,83,0.00,,,0.00,0.000000,,2013-11-16 06:13:00,
2013-11-16 00:42:00,37.0,36.0,-100.00,SE,140,4.0,6.0,95,0.00,,,0.00,0.000000,,2013-11-16 06:42:00,
2013-11-16 00:52:00,37.0,36.0,-100.00,SE,140,4.0,6.0,95,0.00,,,0.00,0.000000,,2013-11-16 06:52:00,
2013-11-16 01:01:00,37.0,36.0,-100.00,SE,140,4.0,6.0,95,0.00,,,0.00,0.000000,,2013-11-16 07:01:00,
2013-11-16 01:11:00,37.0,36.0,-100.00,SE,140,4.0,6.0,95,0.00,,,0.00,0.000000,,2013-11-16 07:11:00,
2013-11-16 01:42:00,37.0,36.0,-100.00,SSE,151,4.0,6.0,97,0.00,,,0.00,0.000000,,2013-11-16 07:42:00,
2013-11-16 01:52:00,37.0,36.0,-100.00,SSE,151,4.0,6.0,97,0.00,,,0.00,0.000000,,2013-11-16 07:52:00,
2013-11-16 02:01:00,37.0,36.0,-100.00,SSE,151,4.0,6.0,97,0.00,,,0.00,0.000000,,2013-11-16 08:01:00,
2013-11-16 02:12:00,37.0,36.0,-100.00,SSE,151,4.0,6.0,97,0.00,,,0.00,0.000000,,2013-11-16 08:12:00,
2013-11-16 02:42:00,37.0,36.0,-100.00,SE,144,3.0,9.0,98,0.00,,,0.00,0.000000,,2013-11-16 08:42:00,
2013-11-16 02:52:00,37.0,36.0,-100.00,SE,144,3.0,9.0,98,0.00,,,0.00,0.000000,,2013-11-16 08:52:00,
2013-11-16 03:02:00,37.0,36.0,-100.00,SE,144,3.0,9.0,98,0.00,,,0.00,0.000000,,2013-11-16 09:02:00,
2013-11-16 03:11:00,37.0,36.0,-100.00,SE,144,3.0,9.0,98,0.00,,,0.00,0.000000,,2013-11-16 09:11:00,
2013-11-16 03:43:00,37.0,36.0,-100.00,SE,140,5.0,8.0,98,0.00,,,0.00,0.000000,,2013-11-16 09:43:00,
2013-11-16 03:53:00,37.0,36.0,-100.00,SE,140,5.0,8.0,98,0.00,,,0.00,0.000000,,2013-11-16 09:53:00,
2013-11-16 04:03:00,37.0,36.0,-100.00,SE,140,5.0,8.0,98,0.00,,,0.00,0.000000,,2013-11-16 10:03:00,
2013-11-16 04:12:00,37.0,36.0,-100.00,SE,140,5.0,8.0,98,0.00,,,0.00,0.000000,,2013-11-16 10:12:00,
2013-11-16 04:43:00,37.0,37.0,-100.00,ESE,123,1.0,9.0,100,0.00,,,0.00,0.000000,,2013-11-16 10:43:00,
2013-11-16 04:52:00,37.0,37.0,-100.00,ESE,123,1.0,9.0,100,0.00,,,0.00,0.000000,,2013-11-16 10:52:00,
2013-11-16 05:02:00,37.0,37.0,-100.00,ESE,123,1.0,9.0,100,0.00,,,0.00,0.000000,,2013-11-16 11:02:00,
2013-11-16 05:12:00,37.0,37.0,-100.00,ESE,123,1.0,9.0,100,0.00,,,0.00,0.000000,,2013-11-16 11:12:00,
2013-11-16 05:42:00,38.0,38.0,-100.00,SSE,148,5.0,9.0,100,0.00,,,0.00,0.000000,,2013-11-16 11:42:00,
2013-11-16 05:53:00,38.0,38.0,-100.00,SSE,148,5.0,9.0,100,0.00,,,0.00,0.000000,,2013-11-16 11:53:00,
2013-11-16 06:02:00,38.0,38.0,-100.00,SSE,148,5.0,9.0,100,0.00,,,0.00,0.000000,,2013-11-16 12:02:00,
2013-11-16 06:12:00,38.0,38.0,-100.00,SSE,148,5.0,9.0,100,0.00,,,0.00,0.000000,,2013-11-16 12:12:00,
2013-11-16 06:42:00,39.0,39.0,-100.00,SE,144,11.0,14.0,100,0.00,,,0.00,0.000000,,2013-11-16 12:42:00,
2013-11-16 06:52:00,39.0,39.0,-100.00,SE,144,11.0,14.0,100,0.00,,,0.00,0.000000,,2013-11-16 12:52:00,
2013-11-16 07:01:00,39.0,39.0,-100.00,SE,144,11.0,14.0,100,0.00,,,0.00,0.000000,,2013-11-16 13:01:00,
2013-11-16 07:11:00,39.0,39.0,-100.00,SE,144,11.0,14.0,100,0.00,,,0.00,0.000000,,2013-11-16 13:11:00,
2013-11-16 07:42:00,39.0,39.0,-100.00,SE,143,9.0,17.0,100,0.00,,,0.00,0.000000,,2013-11-16 13:42:00,
2013-11-16 07:52:00,39.0,39.0,-100.00,SE,143,9.0,17.0,100,0.00,,,0.00,0.000000,,2013-11-16 13:52:00,
2013-11-16 08:02:00,39.0,39.0,-100.00,SE,143,9.0,17.0,100,0.00,,,0.00,0.000000,,2013-11-16 14:02:00,
2013-11-16 08:11:00,39.0,39.0,-100.00,SE,143,9.0,17.0,100,0.00,,,0.00,0.000000,,2013-11-16 14:11:00,
2013-11-16 08:42:00,41.0,41.0,-100.00,SE,144,9.0,16.0,100,0.00,,,0.00,6.000000,,2013-11-16 14:42:00,
2013-11-16 08:52:00,41.0,41.0,-100.00,SE,144,9.0,16.0,100,0.00,,,0.00,6.000000,,2013-11-16 14:52:00,
2013-11-16 09:02:00,41.0,41.0,-100.00,SE,144,9.0,16.0,100,0.00,,,0.00,6.000000,,2013-11-16 15:02:00,
2013-11-16 09:11:00,41.0,41.0,-100.00,SE,144,9.0,16.0,100,0.00,,,0.00,6.000000,,2013-11-16 15:11:00,
2013-11-16 09:43:00,44.0,44.0,-100.00,SSE,155,11.0,22.0,100,0.00,,,0.00,29.000000,,2013-11-16 15:43:00,
2013-11-16 09:53:00,44.0,44.0,-100.00,SSE,155,11.0,22.0,100,0.00,,,0.00,29.000000,,2013-11-16 15:53:00,
2013-11-16 10:03:00,44.0,44.0,-100.00,SSE,155,11.0,22.0,100,0.00,,,0.00,29.000000,,2013-11-16 16:03:00,
2013-11-16 10:13:00,44.0,44.0,-100.00,SSE,155,11.0,22.0,100,0.00,,,0.00,29.000000,,2013-11-16 16:13:00,
2013-11-16 10:43:00,46.0,46.0,-100.00,SSE,163,11.0,19.0,100,0.00,,,0.00,34.000000,,2013-11-16 16:43:00,
2013-11-16 10:53:00,46.0,46.0,-100.00,SSE,163,11.0,19.0,100,0.00,,,0.00,34.000000,,2013-11-16 16:53:00,
2013-11-16 11:03:00,46.0,46.0,-100.00,SSE,163,11.0,19.0,100,0.00,,,0.00,34.000000,,2013-11-16 17:03:00,
2013-11-16 11:12:00,46.0,46.0,-100.00,SSE,163,11.0,19.0,100,0.00,,,0.00,34.000000,,2013-11-16 17:12:00,
2013-11-16 11:43:00,48.0,48.0,-100.00,SSE,156,11.0,21.0,100,0.00,,,0.00,47.000000,,2013-11-16 17:43:00,
2013-11-16 11:52:00,48.0,48.0,-100.00,SSE,156,11.0,21.0,100,0.00,,,0.00,47.000000,,2013-11-16 17:52:00,
2013-11-16 12:02:00,48.0,48.0,-100.00,SSE,156,11.0,21.0,100,0.00,,,0.00,47.000000,,2013-11-16 18:02:00,
2013-11-16 12:12:00,48.0,48.0,-100.00,SSE,156,11.0,21.0,100,0.00,,,0.00,47.000000,,2013-11-16 18:12:00,
2013-11-16 12:42:00,49.0,49.0,-100.00,SSE,149,12.0,25.0,100,0.00,,,0.00,39.000000,,2013-11-16 18:42:00,
2013-11-16 12:52:00,49.0,49.0,-100.00,SSE,149,12.0,25.0,100,0.00,,,0.00,39.000000,,2013-11-16 18:52:00,
2013-11-16 13:02:00,49.0,49.0,-100.00,SSE,149,12.0,25.0,100,0.00,,,0.00,39.000000,,2013-11-16 19:02:00,
2013-11-16 13:12:00,49.0,49.0,-100.00,SSE,149,12.0,25.0,100,0.00,,,0.00,39.000000,,2013-11-16 19:12:00,
2013-11-16 13:42:00,50.0,50.0,-100.00,SSE,164,14.0,21.0,100,0.00,,,0.00,34.000000,,2013-11-16 19:42:00,
2013-11-16 13:53:00,50.0,50.0,-100.00,SSE,164,14.0,21.0,100,0.00,,,0.00,34.000000,,2013-11-16 19:53:00,
2013-11-16 14:01:00,50.0,50.0,-100.00,SSE,164,14.0,21.0,100,0.00,,,0.00,34.000000,,2013-11-16 20:01:00,
2013-11-16 14:12:00,50.0,50.0,-100.00,SSE,164,14.0,21.0,100,0.00,,,0.00,34.000000,,2013-11-16 20:12:00,
2013-11-16 14:42:00,51.0,51.0,-100.00,SSE,161,14.0,24.0,100,0.01,,,0.01,20.000000,,2013-11-16 20:42:00,
2013-11-16 14:53:00,51.0,51.0,-100.00,SSE,161,14.0,24.0,100,0.01,,,0.01,20.000000,,2013-11-16 20:53:00,
2013-11-16 15:02:00,51.0,51.0,-100.00,SSE,161,14.0,24.0,100,0.01,,,0.01,20.000000,,2013-11-16 21:02:00,
2013-11-16 15:12:00,51.0,51.0,-100.00,SSE,161,14.0,24.0,100,0.01,,,0.01,20.000000,,2013-11-16 21:12:00,
2013-11-16 15:44:00,53.0,53.0,-100.00,SSE,156,14.0,24.0,100,0.02,,,0.03,14.000000,,2013-11-16 21:44:00,
2013-11-16 15:54:00,53.0,53.0,-100.00,SSE,156,14.0,24.0,100,0.02,,,0.03,14.000000,,2013-11-16 21:54:00,
2013-11-16 16:04:00,53.0,53.0,-100.00,SSE,156,14.0,24.0,100,0.02,,,0.03,14.000000,,2013-11-16 22:04:00,
2013-11-16 16:13:00,53.0,53.0,-100.00,SSE,156,14.0,24.0,100,0.02,,,0.03,14.000000,,2013-11-16 22:13:00,
2013-11-16 16:42:00,53.0,53.0,-100.00,SSE,154,12.0,23.0,100,0.06,,,0.09,5.000000,,2013-11-16 22:42:00,
2013-11-16 16:53:00,53.0,53.0,-100.00,SSE,154,12.0,23.0,100,0.06,,,0.09,5.000000,,2013-11-16 22:53:00,
2013-11-16 17:03:00,53.0,53.0,-100.00,SSE,154,12.0,23.0,100,0.06,,,0.09,5.000000,,2013-11-16 23:03:00,
2013-11-16 17:13:00,53.0,53.0,-100.00,SSE,154,12.0,23.0,100,0.06,,,0.09,5.000000,,2013-11-16 23:13:00,
2013-11-16 17:43:00,55.0,55.0,-100.00,SSE,160,18.0,29.0,100,0.01,,,0.10,1.000000,,2013-11-16 23:43:00,
2013-11-16 17:53:00,55.0,55.0,-100.00,SSE,160,18.0,29.0,100,0.01,,,0.10,1.000000,,2013-11-16 23:53:00,
2013-11-16 18:02:00,55.0,55.0,-100.00,SSE,160,18.0,29.0,100,0.01,,,0.10,1.000000,,2013-11-17 00:02:00,
2013-11-16 18:12:00,55.0,55.0,-100.00,SSE,160,18.0,29.0,100,0.01,,,0.10,1.000000,,2013-11-17 00:12:00,
2013-11-16 18:42:00,56.0,56.0,-100.00,South,175,15.0,36.0,100,0.00,,,0.10,0.000000,,2013-11-17 00:42:00,
2013-11-16 18:52:00,56.0,56.0,-100.00,South,175,15.0,36.0,100,0.00,,,0.10,0.000000,,2013-11-17 00:52:00,
2013-11-16 19:01:00,56.0,56.0,-100.00,South,175,15.0,36.0,100,0.00,,,0.10,0.000000,,2013-11-17 01:01:00,
2013-11-16 19:12:00,56.0,56.0,-100.00,South,175,15.0,36.0,100,0.00,,,0.10,0.000000,,2013-11-17 01:12:00,
2013-11-16 19:42:00,57.0,57.0,-100.00,South,180,18.0,29.0,100,0.01,,,0.11,0.000000,,2013-11-17 01:42:00,
2013-11-16 19:52:00,57.0,57.0,-100.00,South,180,18.0,29.0,100,0.01,,,0.11,0.000000,,2013-11-17 01:52:00,
2013-11-16 20:01:00,57.0,57.0,-100.00,South,180,18.0,29.0,100,0.01,,,0.11,0.000000,,2013-11-17 02:01:00,
2013-11-16 20:12:00,57.0,57.0,-100.00,South,180,18.0,29.0,100,0.01,,,0.11,0.000000,,2013-11-17 02:12:00,
2013-11-16 20:42:00,57.0,57.0,-100.00,South,190,15.0,28.0,100,0.00,,,0.11,0.000000,,2013-11-17 02:42:00,
2013-11-16 20:52:00,57.0,57.0,-100.00,South,190,15.0,28.0,100,0.00,,,0.11,0.000000,,2013-11-17 02:52:00,
2013-11-16 21:02:00,57.0,57.0,-100.00,South,190,15.0,28.0,100,0.00,,,0.11,0.000000,,2013-11-17 03:02:00,
2013-11-16 21:12:00,57.0,57.0,-100.00,South,190,15.0,28.0,100,0.00,,,0.11,0.000000,,2013-11-17 03:12:00,
2013-11-16 21:14:00,58.0,58.0,-100.00,SSW,197,10.0,27.0,100,0.00,,,0.11,0.000000,,2013-11-17 03:14:00,
2013-11-16 21:44:00,58.0,58.0,-100.00,SSW,197,10.0,27.0,100,0.00,,,0.11,0.000000,,2013-11-17 03:44:00,
2013-11-16 21:56:00,58.0,58.0,-100.00,SSW,197,10.0,27.0,100,0.00,,,0.11,0.000000,,2013-11-17 03:56:00,
2013-11-16 22:03:00,-999.0,-99.9,-100.00,SSW,197,10.0,27.0,-999,-99.99,,,-99.99,0.000000,,2013-11-17 04:03:00,
2013-11-16 22:43:00,58.0,58.0,-100.00,South,189,12.0,19.0,100,0.00,,,0.11,0.000000,,2013-11-17 04:43:00,
2013-11-16 22:53:00,58.0,58.0,-100.00,South,189,12.0,19.0,100,0.00,,,0.11,0.000000,,2013-11-17 04:53:00,
2013-11-16 23:03:00,58.0,58.0,-100.00,South,189,12.0,19.0,100,0.00,,,0.11,0.000000,,2013-11-17 05:03:00,
2013-11-16 23:13:00,58.0,58.0,-100.00,South,189,12.0,19.0,100,0.00,,,0.11,0.000000,,2013-11-17 05:13:00,
2013-11-16 23:44:00,58.0,58.0,-100.00,South,186,12.0,21.0,100,0.00,,,0.11,0.000000,,2013-11-17 05:44:00,
2013-11-16 23:53:00,58.0,58.0,-100.00,South,186,12.0,21.0,100,0.00,,,0.11,0.000000,,2013-11-17 05:53:00,